Temperature
22 22 22 22 19 17 19 20 20 21 21 21 21 20 19 18 18 17 18 18 18 18 18 17 17 17 17 17 17 17 17 17 17 17 17 17 17 17 17 17 17 17 17 17 17 17 18 17 17
22 22 22 21 17 18 19 20 20 21 22 21 21 20 19 18 18 18 18 18 18 18 18 18 17 17 17 17 17 17 17 17 17 17 17 17 17 17 17 17 17 17 17 17 17 17 17 17 17
22 22 22 18 18 18 20 20 21 22 22 22 21 20 19 18 18 18 18 18 18 18 18 18 17 17 17 17 17 17 17 17 17 17 17 17 17 17 17 17 17 17 17 17 17 17 17 17 17
22 22 21 18 19 20 20 21 21 22 22 21 20 19 19 19 19 18 18 18 18 18 18 18 17 17 17 17 17 17 17 17 16 16 16 17 17 17 17 17 17 17 17 17 17 17 17 17 17
22 22 18 19 20 21 21 22 22 21 21 20 20 19 18 19 19 18 18 18 18 18 18 17 17 17 17 17 17 17 17 16 16 16 16 16 17 17 17 17 17 17 17 17 17 17 17 17 17
22 19 18 19 20 21 21 22 22 21 20 20 20 18 18 19 19 18 18 18 18 18 18 18 17 17 17 17 17 17 17 16 16 16 16 16 16 16 16 16 16 17 17 17 17 17 17 16 16
21 18 19 19 20 21 22 22 21 20 20 20 20 18 18 18 18 18 18 18 18 18 18 17 17 17 17 17 17 17 16 16 16 16 16 16 16 16 16 16 16 16 16 16 16 16 16 16 16
23 18 19 19 20 21 22 22 22 21 21 21 20 19 18 19 18 18 18 18 18 18 17 17 17 17 17 17 17 16 16 16 16 16 16 16 16 16 16 16 16 16 16 16 16 16 16 16 16
23 18 18 20 20 21 22 22 22 21 21 20 20 20 20 19 19 18 18 18 18 18 17 17 17 17 17 17 16 16 16 16 16 16 16 16 16 16 16 16 16 16 16 16 16 16 16 16 16
22 18 20 21 21 21 22 22 21 21 20 20 20 20 19 19 19 18 18 18 18 18 17 17 17 17 17 17 17 16 16 16 16 16 16 16 16 16 16 16 16 16 16 16 16 16 16 16 16
22 20 21 22 22 22 22 22 22 20 19 20 19 19 19 19 19 18 18 18 18 18 17 17 17 17 17 17 17 16 16 16 16 16 16 16 16 16 16 16 16 16 16 16 16 16 16 16 16
22 22 22 23 23 23 22 22 21 21 20 21 20 20 19 19 19 18 18 18 18 18 18 17 17 17 17 17 16 16 16 16 16 16 16 16 16 16 15 15 15 15 15 15 15 15 15 15 15
22 22 23 23 23 22 22 21 21 21 21 21 20 20 19 19 19 19 18 18 18 18 18 17 17 17 17 17 16 16 16 16 16 16 16 15 15 15 15 15 15 15 15 15 15 15 15 15 15
22 22 22 22 22 22 21 21 21 21 21 20 20 19 19 19 19 19 18 18 18 18 17 17 17 17 17 17 16 16 16 16 16 16 16 15 15 15 15 15 15 15 15 15 15 15 15 15 15
23 21 21 21 22 22 21 20 20 21 21 20 20 19 19 19 19 18 18 18 18 18 18 17 17 17 17 17 17 16 16 16 16 16 15 15 15 15 15 15 15 15 15 15 15 15 15 15 15
21 20 20 21 21 21 21 19 19 20 20 19 19 19 19 18 18 18 18 18 18 18 18 17 17 17 17 17 17 16 16 16 16 15 15 15 15 15 15 15 15 14 14 14 14 14 14 14 14
20 19 19 20 21 21 20 19 19 20 20 19 19 18 18 18 18 18 18 18 18 18 18 17 17 17 17 17 16 16 16 16 16 15 15 15 15 15 15 15 14 14 14 14 14 14 14 14 14
19 20 20 20 21 20 19 18 18 20 19 19 18 18 18 18 18 18 18 18 18 17 17 17 17 17 16 16 16 16 16 16 15 15 15 15 15 15 14 14 14 14 14 14 14 14 14 14 14
21 20 20 20 21 20 19 18 18 19 18 18 18 18 18 18 17 17 17 17 17 17 17 17 17 16 16 16 16 16 16 15 15 15 15 15 15 14 14 14 14 14 14 14 14 14 14 13 13
21 20 20 20 21 20 19 18 18 18 18 18 18 18 18 18 17 17 17 17 17 17 17 17 16 16 16 16 16 16 15 15 15 15 15 14 14 14 14 14 14 14 14 14 14 13 13 13 13
20 20 20 20 20 20 19 18 18 18 18 18 18 18 18 18 17 17 17 16 17 17 16 16 16 16 15 15 15 15 15 15 14 14 14 14 14 14 14 14 14 14 14 13 13 13 13 13 13
20 21 21 21 19 18 19 17 17 17 17 17 17 17 18 17 17 17 16 16 16 16 16 16 16 15 15 15 15 15 15 14 14 14 14 14 14 14 14 14 13 13 13 13 13 13 13 13 13
21 21 21 20 19 18 18 17 16 16 16 16 16 17 17 17 17 17 16 16 16 16 16 16 15 15 15 15 14 14 14 14 14 14 13 13 13 13 13 13 13 13 13 13 13 13 13 13 13
22 20 19 17 16 17 17 17 16 16 16 16 16 17 17 17 17 16 16 16 15 15 15 15 15 15 14 14 14 14 14 13 13 13 13 13 13 13 13 13 13 13 13 13 13 13 13 13 13
20 17 16 17 16 16 17 17 16 17 17 17 16 16 17 17 17 16 16 15 15 15 15 15 15 14 14 14 14 13 13 13 13 13 13 13 13 13 13 13 13 13 13 12 12 12 13 12 12
20 17 16 17 16 16 17 17 16 17 17 18 17 17 17 16 16 16 16 15 15 15 14 14 14 14 13 13 13 13 13 13 13 13 13 13 12 12 12 12 12 12 12 12 12 12 12 12 12
20 18 17 16 16 16 16 16 17 17 16 16 16 16 16 16 16 16 15 15 15 14 14 14 13 13 13 13 13 13 13 13 12 12 12 12 12 12 12 12 12 12 12 12 12 12 12 12 12
20 18 15 16 16 16 16 16 15 16 16 15 15 15 15 15 15 15 15 15 14 14 14 13 13 13 13 12 12 12 12 12 12 12 12 12 12 12 12 12 12 12 12 12 12 12 12 12 12
19 19 16 14 15 15 15 16 17 16 16 15 15 16 16 16 15 15 15 15 14 14 14 13 13 13 12 12 12 12 12 12 12 12 12 12 12 12 12 12 12 12 11 11 11 11 11 11 11
18 18 16 15 15 14 14 15 17 16 16 16 16 16 16 16 16 15 15 15 14 14 13 13 13 12 12 12 12 11 11 11 11 11 11 11 11 11 11 11 11 11 11 11 11 11 11 11 11
Wind_Speed
4 1 3 3 6 6 4 2 2 3 4 4 8 9 8 6 4 4 2 5 8 6 6 7 8 9 10 10 10 10 10 10 11 11 10 11 11 11 10 11 11 11 11 12 11 12 12 11 11
2 1 3 5 6 5 2 0 4 4 6 7 8 8 7 6 4 5 2 6 9 8 7 8 9 10 10 10 11 10 10 10 10 10 10 10 11 10 10 10 11 11 11 11 11 11 11 11 11
2 1 4 5 4 4 3 2 5 5 5 5 5 6 5 4 3 3 4 8 9 7 8 9 10 10 10 10 10 10 10 10 10 10 10 10 10 10 10 10 10 10 11 10 10 11 11 10 11
3 5 5 6 6 3 4 4 5 5 5 5 6 6 4 2 3 4 8 10 9 7 8 9 10 10 10 10 9 9 9 10 9 9 9 10 10 10 9 10 10 10 9 9 9 10 10 10 10
4 5 6 4 4 2 3 4 6 6 4 5 7 6 3 2 4 8 10 10 9 7 7 9 11 10 10 9 9 9 9 9 9 9 9 9 9 9 9 9 9 9 9 8 9 9 9 10 10
4 5 5 4 3 2 3 5 7 8 7 6 7 6 2 1 5 8 9 9 8 8 7 8 10 10 9 8 8 8 7 7 8 8 9 9 9 9 9 9 9 8 8 8 8 9 9 9 9
5 5 4 4 3 3 2 4 7 7 6 4 5 6 2 1 4 7 8 8 7 7 6 5 7 8 8 8 7 6 6 6 7 7 8 8 8 8 8 8 9 8 8 8 8 8 8 8 9
5 5 3 2 3 2 2 4 5 6 5 4 5 6 4 4 5 7 7 6 6 5 4 4 4 5 5 6 6 6 6 6 6 6 8 8 8 8 8 8 8 8 8 7 7 8 8 8 9
5 5 2 3 4 2 3 5 3 4 6 4 4 5 5 7 7 7 6 5 4 4 3 3 3 3 4 5 4 5 5 5 5 6 6 6 5 5 5 6 7 7 7 7 7 7 7 8 8
5 4 4 4 5 5 4 5 4 5 7 5 6 5 7 8 7 8 6 5 5 4 3 3 3 2 3 4 4 3 3 3 4 4 4 4 4 3 4 4 5 6 6 6 7 7 7 7 6
3 5 4 4 6 5 4 3 3 7 4 5 8 8 7 6 6 6 6 6 5 5 5 4 3 3 3 2 3 2 2 2 2 3 3 4 3 3 3 3 3 4 5 4 5 5 5 5 4
3 2 4 4 5 4 3 3 3 4 6 7 10 10 8 7 6 6 6 5 4 4 4 4 4 3 2 2 2 2 1 1 1 2 4 4 3 2 2 2 2 2 2 3 3 3 4 4 5
3 2 3 5 6 5 5 4 4 3 5 7 8 8 7 7 5 5 5 5 5 4 4 4 4 4 3 3 2 2 1 2 2 3 4 5 3 2 2 2 2 2 3 2 2 3 3 3 4
3 4 3 4 4 4 6 3 4 3 6 8 9 8 6 6 5 4 4 3 3 3 4 4 5 4 4 3 2 2 2 2 3 3 4 5 5 3 2 2 2 2 3 3 3 3 3 2 3
4 5 2 1 2 2 6 2 2 5 8 8 7 7 5 4 4 5 5 5 4 3 3 3 5 4 5 4 3 3 2 3 3 2 3 5 5 5 4 2 2 1 3 4 4 3 3 3 4
3 3 1 4 3 3 6 3 4 4 8 7 6 5 5 3 3 3 4 3 4 4 3 2 4 4 4 4 3 3 3 3 3 3 3 4 5 6 4 3 2 2 4 3 2 3 3 3 3
2 1 3 4 4 4 5 4 4 5 7 6 5 5 4 2 2 2 3 3 3 4 4 3 4 4 4 3 3 3 3 3 3 3 3 3 5 6 5 3 2 3 3 2 2 3 2 2 2
4 3 3 5 4 5 5 4 4 5 7 7 6 5 4 4 2 2 3 3 3 3 4 4 5 4 4 3 3 3 3 3 3 4 4 4 4 5 5 3 3 4 3 2 2 3 3 2 2
4 3 3 5 4 5 5 5 5 5 5 6 5 5 4 4 2 3 4 4 5 4 5 5 5 4 3 3 2 2 2 1 2 3 4 4 5 5 5 3 3 3 3 2 2 2 3 2 2
2 2 2 2 2 4 4 3 3 5 7 8 8 7 5 4 4 4 4 4 5 4 4 5 5 4 3 2 2 2 2 2 2 2 4 5 5 5 5 4 3 2 3 3 2 2 2 1 1
2 4 3 3 2 1 3 2 1 1 3 5 5 6 6 7 7 5 4 4 5 5 4 5 4 4 3 3 3 3 3 3 3 3 2 3 4 4 4 4 4 3 3 2 1 2 3 1 0
3 5 3 3 3 2 3 2 5 4 3 4 5 5 6 6 6 5 5 4 4 4 3 4 4 4 3 4 5 5 4 2 1 1 1 2 4 4 4 4 4 3 2 3 2 2 2 3 1
5 3 1 2 3 1 1 3 6 2 4 6 7 7 7 7 8 7 6 5 4 4 4 4 4 4 4 4 5 5 3 1 1 1 2 2 2 3 4 3 3 3 2 2 2 2 2 2 2
1 4 5 5 4 2 4 5 5 5 7 7 6 7 7 7 7 6 5 5 4 4 4 4 5 4 4 4 5 5 4 3 3 2 2 1 1 1 2 2 2 2 2 2 2 2 2 2 2
5 5 4 4 3 5 2 3 6 6 6 8 9 8 7 7 7 7 6 5 4 4 4 4 5 4 3 3 3 3 4 4 3 2 1 1 1 1 1 1 1 1 1 1 2 2 2 2 2
2 7 6 3 4 4 3 2 4 4 2 5 7 8 7 6 6 7 7 6 4 4 4 4 4 3 3 3 2 2 2 2 1 1 1 1 1 1 0 1 1 1 1 1 1 1 1 1 2
3 3 6 6 2 2 3 2 3 4 5 5 7 7 7 7 6 6 6 5 4 4 3 4 4 3 2 1 2 2 1 2 1 1 1 0 1 1 0 1 1 1 1 1 1 1 1 1 1
4 5 5 4 2 2 3 3 4 5 4 5 6 7 7 7 6 6 5 5 4 3 3 3 4 3 2 2 1 1 0 1 1 1 1 1 1 1 0 0 0 0 0 0 1 1 1 2 1
0 1 3 4 4 4 2 5 4 9 9 9 9 8 8 8 8 6 5 4 4 3 3 3 3 3 1 1 1 1 0 0 0 0 1 1 1 1 0 1 0 0 0 0 1 1 1 1 1
3 4 5 4 3 4 3 6 5 5 7 8 8 8 7 8 8 7 6 4 3 3 3 3 2 2 1 1 1 0 1 1 1 0 1 1 0 0 0 0 1 1 1 1 1 2 2 2 2
Wind_Direction
305 332 93 64 54 56 63 28 100 70 60 66 78 85 85 70 90 125 225 136 129 128 114 106 100 97 93 89 88 87 84 82 81 79 79 79 80 78 77 80 83 83 83 83 83 84 82 82 83
330 56 70 59 77 76 40 48 90 96 134 119 82 79 79 67 81 108 105 133 130 124 116 107 101 97 94 90 88 87 83 83 84 81 80 80 81 80 78 81 84 83 84 85 83 83 81 81 80
315 73 78 66 86 126 142 161 114 88 99 96 86 65 80 100 99 133 149 135 127 120 117 113 106 101 96 92 90 88 85 84 85 83 83 81 81 81 80 81 84 83 82 83 82 81 81 81 81
58 45 54 72 85 116 143 163 128 99 63 61 94 72 66 86 135 148 135 134 127 124 125 122 114 107 103 97 93 90 89 86 86 83 84 83 84 84 84 83 84 85 83 81 81 82 81 81 82
65 70 60 67 82 88 111 104 104 95 81 77 89 91 67 18 104 123 130 134 135 136 134 129 121 115 109 102 97 93 90 88 87 87 87 87 88 89 86 83 82 85 85 83 83 81 81 79 79
55 67 78 84 85 77 78 93 90 88 102 102 98 107 110 117 117 131 136 135 140 144 138 134 130 124 118 111 106 100 95 92 93 93 91 89 90 91 88 86 84 84 86 86 83 80 79 79 79
101 92 116 129 104 87 104 98 99 106 106 117 127 109 125 140 146 138 133 128 133 138 133 133 137 134 127 121 115 109 102 100 100 100 99 95 93 91 88 88 87 85 86 87 86 81 77 75 78
125 101 89 111 117 94 105 93 107 106 104 117 114 122 159 194 155 125 119 116 120 125 131 131 138 140 138 132 126 119 110 104 103 107 106 102 98 93 90 87 88 87 84 85 85 79 75 72 76
94 82 117 174 154 150 110 99 83 83 97 79 88 132 161 149 129 111 105 97 114 118 125 138 142 150 152 149 142 130 121 112 111 112 112 105 97 91 86 87 85 84 81 80 80 75 67 68 69
91 123 192 180 157 147 119 110 117 84 80 78 81 92 118 128 131 132 131 133 140 148 156 146 153 158 153 153 140 137 130 124 124 120 116 116 115 112 98 83 79 78 75 71 73 66 62 63 57
123 161 170 146 146 136 118 95 93 118 108 152 146 143 140 133 140 147 154 155 160 162 154 158 160 149 144 136 136 134 125 128 134 134 137 127 113 106 100 78 60 59 65 60 61 59 56 59 59
112 159 151 143 133 123 125 115 91 118 174 173 154 149 148 148 158 164 167 168 160 152 158 168 166 158 155 138 135 132 123 121 123 143 141 130 117 111 108 96 84 71 68 66 63 72 62 66 64
116 135 118 126 117 120 109 113 119 139 151 143 140 136 144 148 157 163 163 163 158 159 166 169 167 165 155 141 141 128 135 142 139 123 134 132 123 133 124 111 98 88 84 85 80 73 69 74 78
153 127 122 131 125 134 128 126 109 182 146 133 135 141 151 154 154 142 142 143 160 169 177 170 168 168 149 149 154 151 152 133 119 116 129 134 126 121 119 112 89 82 92 96 97 89 80 72 81
112 95 48 207 164 160 116 80 195 187 145 140 145 148 144 144 135 140 159 156 158 163 160 167 165 157 149 150 157 141 135 117 111 110 122 134 130 121 114 113 101 90 97 95 92 83 79 75 73
54 83 187 255 187 185 128 199 238 177 141 146 151 144 133 124 124 130 138 150 148 139 129 140 142 142 147 144 142 131 118 111 111 116 114 125 130 127 112 114 111 99 95 95 97 86 80 68 66
34 161 222 257 210 171 148 197 223 182 151 152 152 145 137 117 81 85 102 111 130 138 127 100 98 126 132 134 122 112 104 100 98 101 100 114 120 125 114 116 112 99 90 91 105 90 96 92 74
228 212 232 227 216 154 157 195 207 186 161 163 156 151 147 144 158 123 98 94 92 98 98 93 89 94 105 104 85 79 77 74 74 80 86 104 108 112 106 111 102 97 94 81 90 96 81 93 97
203 204 235 237 207 157 171 188 208 190 156 160 160 162 163 166 158 107 96 90 80 80 85 82 80 74 90 95 99 106 103 88 73 75 79 87 97 104 101 109 103 100 105 113 112 108 89 69 75
189 220 268 283 221 169 179 210 214 186 178 175 174 174 170 139 108 100 88 80 80 84 92 85 84 79 79 95 134 137 129 104 85 59 65 76 90 96 103 110 122 113 103 89 91 105 97 75 83
211 194 211 229 358 78 127 326 267 219 161 166 175 172 166 154 149 139 112 92 89 87 101 104 91 83 81 77 77 76 68 57 45 39 44 50 84 91 91 106 117 124 120 125 122 122 129 157 267
226 222 199 166 111 253 175 240 264 213 193 190 190 173 167 157 144 138 124 108 108 106 102 100 96 83 79 93 98 101 111 117 160 152 73 53 68 80 89 97 110 125 126 132 139 119 125 139 153
210 216 200 180 151 299 278 176 274 201 204 216 202 180 166 157 149 145 141 134 118 103 100 100 90 80 79 91 108 106 91 99 93 85 76 61 48 61 76 86 96 112 126 135 123 114 116 125 138
160 53 33 52 79 286 240 178 260 221 209 202 190 173 164 156 149 142 131 115 97 85 86 88 86 73 71 85 94 104 103 89 88 79 83 69 45 33 50 80 87 101 125 140 144 142 141 140 132
69 77 28 2 12 251 256 174 247 251 212 186 175 169 162 151 144 139 130 122 112 102 93 89 89 75 66 77 87 99 103 101 104 113 125 104 60 19 350 68 90 106 139 148 139 139 156 151 142
173 138 155 201 226 278 336 227 275 298 139 138 146 147 142 142 147 152 153 149 141 130 120 109 104 91 76 74 76 86 99 103 98 94 115 139 185 239 252 80 95 87 98 108 130 143 185 152 153
148 169 174 152 220 268 291 303 339 31 77 102 124 135 149 154 155 157 155 154 152 142 137 136 129 115 109 105 94 79 89 98 94 86 99 164 258 245 349 81 95 39 51 79 128 148 198 164 166
160 150 93 115 167 258 286 245 222 214 184 159 158 163 165 161 158 157 157 159 161 155 140 128 128 136 143 114 101 85 115 124 113 80 23 332 300 328 22 110 136 138 17 39 128 146 176 148 185
103 110 119 128 152 162 239 265 232 200 192 182 186 181 173 171 170 167 162 163 159 146 135 129 124 119 123 123 111 78 47 150 139 138 285 307 301 306 236 210 196 176 184 217 134 189 190 180 201
178 182 151 157 224 180 183 262 285 204 190 178 183 186 181 171 168 166 160 154 152 150 145 143 135 133 159 165 143 125 45 41 35 299 289 304 303 289 229 202 157 189 195 197 186 209 213 205 211
Height
1510 1509 1509 1510 1514 1526 1529 1523 1518 1516 1516 1517 1516 1517 1520 1524 1527 1534 1530 1528 1528 1527 1526 1526 1525 1524 1523 1522 1522 1521 1521 1520 1520 1519 1519 1519 1518 1518 1518 1518 1518 1518 1517 1517 1517 1517 1517 1517 1517
1510 1509 1510 1511 1523 1537 1533 1522 1519 1516 1517 1517 1518 1520 1522 1525 1526 1528 1528 1528 1528 1528 1527 1527 1526 1525 1524 1523 1523 1522 1522 1521 1521 1520 1520 1520 1519 1519 1519 1519 1519 1519 1519 1519 1518 1518 1518 1518 1518
1509 1509 1511 1515 1526 1534 1530 1521 1518 1516 1516 1516 1520 1522 1524 1527 1528 1528 1528 1529 1529 1528 1528 1527 1527 1526 1525 1524 1524 1523 1523 1522 1522 1521 1521 1521 1521 1520 1520 1520 1520 1520 1520 1520 1520 1520 1519 1520 1519
1509 1511 1513 1521 1527 1523 1521 1518 1516 1517 1518 1519 1520 1524 1527 1529 1528 1529 1529 1529 1529 1529 1529 1528 1527 1527 1526 1526 1525 1524 1524 1523 1523 1522 1522 1522 1522 1521 1521 1521 1521 1521 1521 1521 1521 1521 1521 1521 1521
1510 1511 1520 1528 1525 1521 1518 1517 1517 1517 1519 1522 1522 1526 1529 1530 1529 1529 1529 1530 1530 1529 1529 1529 1528 1528 1527 1527 1526 1525 1525 1524 1524 1523 1523 1523 1522 1522 1522 1522 1522 1522 1522 1522 1522 1522 1522 1522 1522
1511 1514 1529 1534 1527 1521 1518 1517 1518 1519 1522 1523 1524 1527 1530 1531 1530 1530 1530 1531 1530 1530 1530 1530 1529 1529 1528 1528 1527 1526 1526 1525 1525 1524 1524 1524 1523 1523 1523 1523 1523 1523 1522 1522 1523 1523 1523 1523 1523
1513 1520 1529 1530 1528 1524 1520 1519 1519 1521 1522 1524 1524 1527 1530 1531 1531 1531 1531 1531 1531 1531 1531 1531 1530 1530 1529 1528 1528 1527 1527 1526 1525 1525 1525 1524 1524 1524 1524 1524 1524 1523 1523 1523 1523 1524 1524 1524 1524
1512 1519 1527 1529 1528 1525 1520 1519 1520 1521 1523 1525 1525 1527 1530 1531 1531 1532 1532 1532 1532 1532 1531 1531 1531 1530 1530 1529 1528 1528 1528 1527 1526 1526 1526 1525 1525 1525 1525 1525 1525 1524 1524 1524 1524 1525 1525 1525 1525
1513 1524 1532 1528 1526 1524 1520 1520 1522 1523 1523 1525 1526 1527 1528 1530 1531 1531 1532 1532 1532 1532 1532 1531 1531 1530 1530 1529 1529 1529 1528 1528 1527 1527 1527 1526 1526 1526 1525 1525 1525 1525 1525 1525 1525 1526 1526 1526 1526
1514 1526 1524 1519 1519 1520 1520 1520 1522 1524 1524 1526 1527 1528 1529 1530 1530 1531 1531 1531 1531 1532 1532 1532 1531 1531 1530 1530 1529 1529 1529 1528 1528 1528 1527 1527 1527 1526 1526 1526 1526 1526 1526 1526 1526 1526 1526 1527 1527
1514 1519 1517 1517 1517 1518 1519 1521 1522 1524 1526 1526 1526 1528 1529 1529 1530 1530 1531 1531 1531 1531 1531 1531 1531 1531 1530 1530 1530 1529 1529 1529 1528 1528 1528 1528 1527 1527 1527 1527 1527 1527 1527 1527 1527 1527 1527 1528 1528
1514 1515 1515 1516 1517 1518 1519 1521 1523 1523 1525 1526 1526 1527 1528 1529 1529 1530 1530 1531 1531 1531 1531 1531 1531 1530 1530 1530 1530 1529 1529 1529 1529 1528 1528 1528 1528 1528 1527 1527 1527 1527 1527 1527 1527 1528 1528 1528 1528
1514 1516 1516 1516 1517 1518 1520 1521 1522 1524 1525 1526 1527 1527 1528 1528 1529 1530 1530 1530 1531 1531 1530 1530 1530 1530 1530 1530 1530 1529 1529 1529 1529 1529 1529 1529 1528 1528 1528 1528 1528 1528 1528 1528 1528 1528 1528 1528 1529
1514 1515 1516 1517 1518 1519 1520 1522 1523 1525 1525 1526 1526 1527 1528 1528 1528 1529 1529 1529 1530 1530 1530 1530 1530 1530 1529 1529 1529 1529 1529 1529 1529 1529 1529 1529 1529 1528 1528 1528 1528 1528 1528 1528 1528 1528 1528 1529 1529
1514 1517 1519 1518 1518 1519 1521 1525 1523 1523 1524 1525 1526 1527 1527 1528 1528 1528 1528 1528 1528 1529 1529 1529 1529 1529 1528 1529 1529 1529 1529 1529 1529 1529 1529 1529 1529 1528 1528 1528 1528 1528 1528 1528 1528 1529 1529 1529 1529
1516 1521 1527 1520 1517 1519 1524 1531 1524 1524 1524 1525 1526 1527 1527 1528 1528 1528 1528 1528 1528 1528 1528 1528 1528 1528 1528 1528 1528 1528 1528 1528 1528 1528 1528 1528 1528 1528 1528 1528 1528 1528 1528 1528 1528 1529 1529 1529 1529
1523 1530 1529 1522 1516 1517 1522 1527 1523 1523 1523 1524 1525 1526 1527 1527 1527 1527 1527 1527 1527 1527 1527 1527 1527 1527 1527 1527 1527 1528 1528 1528 1528 1528 1528 1528 1528 1528 1528 1528 1528 1528 1528 1528 1528 1528 1529 1529 1529
1529 1528 1526 1524 1517 1517 1522 1525 1521 1521 1522 1523 1524 1525 1526 1526 1527 1526 1526 1527 1526 1526 1526 1526 1526 1526 1526 1526 1526 1527 1527 1527 1528 1528 1528 1528 1528 1528 1527 1527 1527 1528 1528 1528 1528 1528 1528 1529 1529
1518 1522 1524 1519 1513 1517 1522 1523 1521 1520 1521 1522 1524 1524 1525 1525 1526 1526 1526 1526 1526 1526 1525 1525 1525 1526 1526 1526 1526 1526 1526 1526 1527 1527 1527 1528 1528 1527 1527 1527 1527 1527 1527 1528 1528 1528 1528 1528 1528
1517 1522 1522 1517 1512 1516 1522 1523 1520 1519 1520 1520 1522 1523 1523 1524 1525 1525 1525 1525 1524 1524 1525 1525 1525 1525 1525 1525 1525 1525 1525 1525 1526 1527 1527 1527 1527 1527 1527 1527 1527 1527 1527 1527 1527 1527 1527 1528 1528
1517 1520 1519 1518 1515 1515 1521 1527 1524 1520 1520 1521 1521 1522 1522 1523 1523 1524 1524 1524 1524 1524 1524 1524 1524 1524 1524 1525 1525 1524 1525 1525 1525 1526 1526 1526 1526 1526 1526 1526 1526 1526 1526 1526 1527 1527 1527 1527 1528
1519 1511 1511 1514 1523 1529 1524 1539 1527 1522 1521 1520 1520 1520 1521 1522 1522 1523 1524 1524 1524 1524 1525 1525 1524 1524 1524 1524 1524 1523 1523 1523 1523 1524 1524 1525 1525 1525 1525 1525 1525 1525 1525 1526 1526 1526 1526 1526 1526
1511 1506 1509 1513 1521 1528 1527 1536 1532 1522 1522 1519 1517 1518 1519 1520 1521 1523 1523 1524 1524 1524 1524 1525 1524 1524 1523 1523 1522 1522 1523 1523 1523 1524 1524 1524 1524 1524 1524 1524 1524 1524 1524 1525 1525 1525 1525 1525 1525
1504 1509 1513 1520 1527 1538 1529 1535 1533 1523 1517 1515 1515 1516 1517 1519 1521 1522 1523 1524 1524 1524 1524 1524 1524 1524 1523 1523 1522 1522 1523 1522 1523 1523 1522 1522 1522 1523 1523 1523 1523 1523 1523 1524 1524 1524 1524 1524 1524
1509 1523 1538 1539 1545 1541 1525 1529 1528 1513 1509 1510 1511 1514 1516 1518 1520 1521 1523 1523 1524 1524 1524 1524 1523 1523 1523 1522 1522 1522 1522 1522 1522 1522 1521 1521 1521 1521 1521 1522 1522 1522 1522 1522 1523 1523 1523 1523 1523
1511 1521 1540 1546 1546 1539 1527 1530 1522 1510 1507 1508 1510 1513 1515 1517 1519 1520 1522 1523 1523 1523 1523 1523 1523 1523 1522 1522 1522 1522 1521 1521 1521 1521 1521 1521 1520 1520 1521 1521 1521 1521 1521 1521 1521 1521 1521 1522 1522
1512 1519 1519 1533 1535 1540 1535 1527 1518 1511 1511 1511 1512 1514 1515 1517 1518 1520 1521 1522 1523 1523 1523 1523 1523 1522 1522 1522 1521 1521 1521 1521 1520 1520 1520 1519 1519 1519 1519 1519 1519 1519 1519 1519 1519 1519 1520 1520 1520
1506 1512 1524 1532 1541 1546 1537 1531 1528 1518 1515 1513 1514 1514 1514 1516 1517 1519 1520 1522 1522 1523 1523 1523 1522 1522 1521 1521 1520 1520 1520 1520 1519 1519 1519 1518 1518 1518 1517 1517 1517 1517 1517 1517 1517 1517 1518 1518 1518
1510 1513 1520 1531 1535 1544 1545 1536 1512 1511 1510 1511 1511 1512 1513 1514 1516 1517 1519 1521 1522 1522 1522 1522 1521 1521 1520 1520 1519 1519 1518 1518 1518 1517 1517 1516 1516 1516 1516 1516 1515 1515 1515 1515 1515 1515 1516 1516 1516
1507 1511 1519 1531 1533 1536 1541 1535 1506 1506 1507 1508 1510 1511 1512 1513 1515 1516 1518 1519 1520 1520 1520 1520 1520 1520 1519 1519 1518 1517 1517 1516 1516 1516 1515 1515 1514 1514 1514 1513 1513 1513 1513 1513 1513 1513 1513 1513 1514